Location: Arran
(51.9410°N, 101.7372°W)
Time: 06:54:34
(UTC+00:00)

AO-85 - Pass Details

Date: 04 December 2023
Orbit: 516 x 753 km, 64.8° (Epoch: 04 January)

Event Time Altitude Azimuth Distance (km) Brightness Sun altitude
Rises 02:02:44 0° 317° (NW) 2,807 ? -30.4°
Reaches altitude 10° 02:05:09 10° 329° (NNW) 1,942 ? -30.8°
Enters shadow 02:05:52 14° 335° (NNW) 1,708 ? -30.9°
